Year,Month,Day,Hour,Minute,Value (Times are PST for windgust in km/hr)
2021,09,29,00,00,22.50
2021,09,29,00,01,22.50
2021,09,29,00,02,22.50
2021,09,29,00,03,22.50
2021,09,29,00,04,22.50
2021,09,29,00,05,14.50
2021,09,29,00,06,16.10
2021,09,29,00,07,16.10
2021,09,29,00,08,16.10
2021,09,29,00,09,16.10
2021,09,29,00,11,14.50
2021,09,29,00,12,20.90
2021,09,29,00,13,20.90
2021,09,29,00,14,20.90
2021,09,29,00,15,20.90
2021,09,29,00,16,22.50
2021,09,29,00,17,22.50
2021,09,29,00,18,22.50
2021,09,29,00,19,22.50
2021,09,29,00,20,22.50
2021,09,29,00,21,14.50
2021,09,29,00,22,16.10
2021,09,29,00,23,16.10
2021,09,29,00,24,16.10
2021,09,29,00,25,19.30
2021,09,29,00,26,12.90
2021,09,29,00,28,17.70
2021,09,29,00,29,17.70
2021,09,29,00,30,17.70
2021,09,29,00,31,12.90
2021,09,29,00,32,16.10
2021,09,29,00,33,17.70
2021,09,29,00,34,17.70
2021,09,29,00,35,17.70
2021,09,29,00,36,14.50
2021,09,29,00,37,14.50
2021,09,29,00,38,16.10
2021,09,29,00,39,16.10
2021,09,29,00,40,16.10
2021,09,29,00,41,11.30
2021,09,29,00,42,11.30
2021,09,29,00,43,11.30
2021,09,29,00,44,11.30
2021,09,29,00,45,4.80
2021,09,29,00,46,8.00
2021,09,29,00,47,8.00
2021,09,29,00,48,9.70
2021,09,29,00,49,9.70
2021,09,29,00,50,8.00
2021,09,29,00,51,9.70
2021,09,29,00,53,9.70
2021,09,29,00,54,9.70
2021,09,29,00,55,9.70
2021,09,29,00,56,4.80
2021,09,29,00,57,8.00
2021,09,29,00,58,8.00
2021,09,29,00,59,8.00
2021,09,29,01,00,8.00
2021,09,29,01,01,6.40
2021,09,29,01,02,6.40
2021,09,29,01,03,6.40
2021,09,29,01,04,6.40
2021,09,29,01,05,6.40
2021,09,29,01,06,4.80
2021,09,29,01,07,4.80
2021,09,29,01,08,6.40
2021,09,29,01,09,6.40
2021,09,29,01,10,8.00
2021,09,29,01,11,8.00
2021,09,29,01,12,9.70
2021,09,29,01,13,12.90
2021,09,29,01,14,16.10
2021,09,29,01,15,11.30
2021,09,29,01,16,11.30
2021,09,29,01,17,11.30
2021,09,29,01,18,14.50
2021,09,29,01,20,14.50
2021,09,29,01,21,8.00
2021,09,29,01,22,8.00
2021,09,29,01,23,8.00
2021,09,29,01,24,8.00
2021,09,29,01,25,8.00
2021,09,29,01,26,11.30
2021,09,29,01,27,11.30
2021,09,29,01,28,11.30
2021,09,29,01,29,11.30
2021,09,29,01,30,11.30
2021,09,29,01,31,6.40
2021,09,29,01,32,8.00
2021,09,29,01,33,11.30
2021,09,29,01,34,11.30
2021,09,29,01,35,9.70
2021,09,29,01,36,11.30
2021,09,29,01,37,11.30
2021,09,29,01,38,11.30
2021,09,29,01,39,11.30
2021,09,29,01,40,6.40
2021,09,29,01,41,6.40
2021,09,29,01,43,6.40
2021,09,29,01,45,6.40
2021,09,29,01,46,4.80
2021,09,29,01,47,6.40
2021,09,29,01,48,6.40
2021,09,29,01,49,6.40
2021,09,29,01,50,6.40
2021,09,29,01,51,4.80
2021,09,29,01,52,6.40
2021,09,29,01,53,6.40
2021,09,29,01,54,6.40
2021,09,29,01,55,6.40
2021,09,29,01,56,3.20
2021,09,29,01,57,3.20
2021,09,29,01,58,3.20
2021,09,29,01,59,4.80
2021,09,29,02,00,3.20
2021,09,29,02,01,3.20
2021,09,29,02,02,6.40
2021,09,29,02,03,6.40
2021,09,29,02,04,6.40
2021,09,29,02,05,4.80
2021,09,29,02,06,4.80
2021,09,29,02,07,6.40
2021,09,29,02,09,6.40
2021,09,29,02,10,6.40
2021,09,29,02,11,4.80
2021,09,29,02,12,4.80
2021,09,29,02,13,4.80
2021,09,29,02,14,4.80
2021,09,29,02,15,4.80
2021,09,29,02,16,6.40
2021,09,29,02,17,6.40
2021,09,29,02,18,6.40
2021,09,29,02,19,6.40
2021,09,29,02,20,6.40
2021,09,29,02,21,6.40
2021,09,29,02,22,6.40
2021,09,29,02,23,6.40
2021,09,29,02,24,6.40
2021,09,29,02,25,3.20
2021,09,29,02,26,4.80
2021,09,29,02,27,4.80
2021,09,29,02,28,4.80
2021,09,29,02,29,4.80
2021,09,29,02,30,4.80
2021,09,29,02,31,4.80
2021,09,29,02,32,4.80
2021,09,29,02,33,4.80
2021,09,29,02,34,6.40
2021,09,29,02,35,4.80
2021,09,29,02,36,4.80
2021,09,29,02,37,4.80
2021,09,29,02,38,4.80
2021,09,29,02,39,4.80
2021,09,29,02,40,3.20
2021,09,29,02,42,4.80
2021,09,29,02,43,4.80
2021,09,29,02,44,4.80
2021,09,29,02,45,4.80
2021,09,29,02,46,3.20
2021,09,29,02,47,3.20
2021,09,29,02,48,4.80
2021,09,29,02,49,4.80
2021,09,29,02,50,4.80
2021,09,29,02,51,3.20
2021,09,29,02,52,4.80
2021,09,29,02,53,6.40
2021,09,29,02,54,6.40
2021,09,29,02,55,6.40
2021,09,29,02,56,3.20
2021,09,29,02,57,6.40
2021,09,29,02,58,6.40
2021,09,29,02,59,6.40
2021,09,29,03,00,4.80
2021,09,29,03,01,4.80
2021,09,29,03,02,4.80
2021,09,29,03,03,4.80
2021,09,29,03,04,4.80
2021,09,29,03,05,3.20
2021,09,29,03,06,4.80
2021,09,29,03,07,4.80
2021,09,29,03,08,4.80
2021,09,29,03,09,4.80
2021,09,29,03,10,4.80
2021,09,29,03,11,4.80
2021,09,29,03,13,4.80
2021,09,29,03,14,4.80
2021,09,29,03,15,4.80
2021,09,29,03,16,4.80
2021,09,29,03,17,6.40
2021,09,29,03,18,6.40
2021,09,29,03,19,6.40
2021,09,29,03,20,6.40
2021,09,29,03,21,6.40
2021,09,29,03,22,6.40
2021,09,29,03,23,6.40
2021,09,29,03,24,6.40
2021,09,29,03,25,6.40
2021,09,29,03,26,6.40
2021,09,29,03,27,6.40
2021,09,29,03,28,6.40
2021,09,29,03,29,6.40
2021,09,29,03,30,4.80
2021,09,29,03,32,6.40
2021,09,29,03,33,6.40
2021,09,29,03,34,6.40
2021,09,29,03,35,6.40
2021,09,29,03,36,6.40
2021,09,29,03,37,6.40
2021,09,29,03,38,6.40
2021,09,29,03,39,6.40
2021,09,29,03,40,6.40
2021,09,29,03,41,6.40
2021,09,29,03,42,6.40
2021,09,29,03,43,6.40
2021,09,29,03,44,6.40
2021,09,29,03,45,6.40
2021,09,29,03,46,6.40
2021,09,29,03,47,6.40
2021,09,29,03,48,6.40
2021,09,29,03,49,6.40
2021,09,29,03,50,4.80
2021,09,29,03,51,6.40
2021,09,29,03,52,6.40
2021,09,29,03,53,6.40
2021,09,29,03,54,6.40
2021,09,29,03,56,4.80
2021,09,29,03,57,4.80
2021,09,29,03,58,4.80
2021,09,29,03,59,4.80
2021,09,29,04,00,6.40
2021,09,29,04,01,6.40
2021,09,29,04,02,6.40
2021,09,29,04,03,6.40
2021,09,29,04,04,6.40
2021,09,29,04,05,4.80
2021,09,29,04,06,4.80
2021,09,29,04,07,6.40
2021,09,29,04,08,6.40
2021,09,29,04,09,6.40
2021,09,29,04,10,8.00
2021,09,29,04,11,8.00
2021,09,29,04,12,8.00
2021,09,29,04,13,8.00
2021,09,29,04,14,8.00
2021,09,29,04,15,3.20
2021,09,29,04,16,3.20
2021,09,29,04,18,3.20
2021,09,29,04,19,4.80
2021,09,29,04,20,4.80
2021,09,29,04,21,3.20
2021,09,29,04,22,3.20
2021,09,29,04,23,3.20
2021,09,29,04,24,3.20
2021,09,29,04,25,3.20
2021,09,29,04,26,4.80
2021,09,29,04,27,4.80
2021,09,29,04,28,4.80
2021,09,29,04,29,4.80
2021,09,29,04,30,6.40
2021,09,29,04,31,6.40
2021,09,29,04,32,6.40
2021,09,29,04,33,6.40
2021,09,29,04,34,6.40
2021,09,29,04,35,4.80
2021,09,29,04,36,4.80
2021,09,29,04,37,4.80
2021,09,29,04,38,8.00
2021,09,29,04,39,8.00
2021,09,29,04,40,4.80
2021,09,29,04,41,6.40
2021,09,29,04,42,6.40
2021,09,29,04,43,6.40
2021,09,29,04,44,8.00
2021,09,29,04,45,8.00
2021,09,29,04,47,8.00
2021,09,29,04,48,8.00
2021,09,29,04,50,8.00
2021,09,29,04,51,3.20
2021,09,29,04,52,4.80
2021,09,29,04,53,6.40
2021,09,29,04,54,6.40
2021,09,29,04,55,4.80
2021,09,29,04,56,4.80
2021,09,29,04,57,6.40
2021,09,29,04,58,6.40
2021,09,29,04,59,8.00
2021,09,29,05,00,6.40
2021,09,29,05,01,6.40
2021,09,29,05,02,6.40
2021,09,29,05,03,6.40
2021,09,29,05,04,6.40
2021,09,29,05,05,4.80
2021,09,29,05,06,4.80
2021,09,29,05,07,4.80
2021,09,29,05,08,4.80
2021,09,29,05,09,4.80
2021,09,29,05,10,3.20
2021,09,29,05,12,4.80
2021,09,29,05,13,4.80
2021,09,29,05,14,4.80
2021,09,29,05,15,4.80
2021,09,29,05,16,4.80
2021,09,29,05,17,4.80
2021,09,29,05,18,4.80
2021,09,29,05,19,4.80
2021,09,29,05,20,3.20
2021,09,29,05,21,3.20
2021,09,29,05,22,4.80
2021,09,29,05,23,4.80
2021,09,29,05,24,4.80
2021,09,29,05,25,4.80
2021,09,29,05,26,4.80
2021,09,29,05,27,4.80
2021,09,29,05,28,4.80
2021,09,29,05,29,6.40
2021,09,29,05,30,6.40
2021,09,29,05,31,6.40
2021,09,29,05,32,8.00
2021,09,29,05,33,8.00
2021,09,29,05,34,8.00
2021,09,29,05,35,3.20
2021,09,29,05,37,4.80
2021,09,29,05,38,4.80
2021,09,29,05,39,4.80
2021,09,29,05,40,4.80
2021,09,29,05,41,3.20
2021,09,29,05,42,3.20
2021,09,29,05,43,3.20
2021,09,29,05,44,3.20
2021,09,29,05,45,1.60
2021,09,29,05,46,3.20
2021,09,29,05,47,3.20
2021,09,29,05,48,3.20
2021,09,29,05,49,3.20
2021,09,29,05,50,1.60
2021,09,29,05,51,3.20
2021,09,29,05,52,3.20
2021,09,29,05,53,3.20
2021,09,29,05,54,3.20
2021,09,29,05,55,1.60
2021,09,29,05,57,3.20
2021,09,29,05,58,3.20
2021,09,29,05,59,4.80
2021,09,29,06,00,6.40
2021,09,29,06,01,6.40
2021,09,29,06,03,6.40
2021,09,29,06,04,6.40
2021,09,29,06,06,4.80
2021,09,29,06,07,4.80
2021,09,29,06,08,4.80
2021,09,29,06,10,4.80
2021,09,29,06,11,4.80
2021,09,29,06,12,4.80
2021,09,29,06,13,4.80
2021,09,29,06,14,4.80
2021,09,29,06,15,3.20
2021,09,29,06,16,3.20
2021,09,29,06,17,3.20
2021,09,29,06,18,4.80
2021,09,29,06,19,4.80
2021,09,29,06,20,4.80
2021,09,29,06,22,4.80
2021,09,29,06,23,4.80
2021,09,29,06,24,4.80
2021,09,29,06,25,4.80
2021,09,29,06,26,6.40
2021,09,29,06,27,6.40
2021,09,29,06,28,6.40
2021,09,29,06,29,6.40
2021,09,29,06,30,4.80
2021,09,29,06,31,4.80
2021,09,29,06,33,4.80
2021,09,29,06,34,8.00
2021,09,29,06,35,4.80
2021,09,29,06,36,6.40
2021,09,29,06,37,6.40
2021,09,29,06,38,6.40
2021,09,29,06,39,6.40
2021,09,29,06,40,1.60
2021,09,29,06,41,3.20
2021,09,29,06,42,3.20
2021,09,29,06,43,3.20
2021,09,29,06,44,6.40
2021,09,29,06,45,4.80
2021,09,29,06,46,6.40
2021,09,29,06,47,6.40
2021,09,29,06,48,6.40
2021,09,29,06,49,6.40
2021,09,29,06,50,4.80
2021,09,29,06,51,4.80
2021,09,29,06,52,4.80
2021,09,29,06,53,4.80
2021,09,29,06,54,4.80
2021,09,29,06,55,3.20
2021,09,29,06,56,3.20
2021,09,29,06,57,3.20
2021,09,29,06,58,3.20
2021,09,29,06,59,3.20
2021,09,29,07,00,1.60
2021,09,29,07,01,1.60
2021,09,29,07,02,1.60
2021,09,29,07,03,1.60
2021,09,29,07,04,1.60
2021,09,29,07,05,0.00
2021,09,29,07,06,1.60
2021,09,29,07,07,1.60
2021,09,29,07,08,1.60
2021,09,29,07,09,1.60
2021,09,29,07,10,0.00
2021,09,29,07,11,0.00
2021,09,29,07,12,0.00
2021,09,29,07,14,1.60
2021,09,29,07,15,4.80
2021,09,29,07,16,4.80
2021,09,29,07,17,4.80
2021,09,29,07,18,4.80
2021,09,29,07,19,4.80
2021,09,29,07,20,1.60
2021,09,29,07,21,3.20
2021,09,29,07,22,3.20
2021,09,29,07,23,3.20
2021,09,29,07,24,4.80
2021,09,29,07,25,4.80
2021,09,29,07,26,4.80
2021,09,29,07,27,4.80
2021,09,29,07,28,4.80
2021,09,29,07,29,4.80
2021,09,29,07,30,3.20
2021,09,29,07,31,3.20
2021,09,29,07,32,3.20
2021,09,29,07,33,3.20
2021,09,29,07,34,3.20
2021,09,29,07,35,3.20
2021,09,29,07,36,3.20
2021,09,29,07,37,4.80
2021,09,29,07,38,4.80
2021,09,29,07,39,4.80
2021,09,29,07,40,3.20
2021,09,29,07,41,3.20
2021,09,29,07,42,3.20
2021,09,29,07,43,3.20
2021,09,29,07,44,3.20
2021,09,29,07,45,8.00
2021,09,29,07,46,8.00
2021,09,29,07,48,8.00
2021,09,29,07,50,8.00
2021,09,29,07,51,11.30
2021,09,29,07,52,11.30
2021,09,29,07,53,11.30
2021,09,29,07,54,11.30
2021,09,29,07,55,11.30
2021,09,29,07,56,11.30
2021,09,29,07,57,11.30
2021,09,29,07,58,11.30
2021,09,29,07,59,11.30
2021,09,29,08,00,11.30
2021,09,29,08,01,4.80
2021,09,29,08,02,4.80
2021,09,29,08,03,4.80
2021,09,29,08,04,4.80
2021,09,29,08,05,4.80
2021,09,29,08,06,3.20
2021,09,29,08,07,3.20
2021,09,29,08,08,3.20
2021,09,29,08,09,3.20
2021,09,29,08,10,4.80
2021,09,29,08,11,4.80
2021,09,29,08,12,4.80
2021,09,29,08,13,4.80
2021,09,29,08,14,4.80
2021,09,29,08,15,4.80
2021,09,29,08,16,0.00
2021,09,29,08,17,1.60
2021,09,29,08,18,1.60
2021,09,29,08,19,1.60
2021,09,29,08,20,4.80
2021,09,29,08,21,4.80
2021,09,29,08,22,4.80
2021,09,29,08,23,4.80
2021,09,29,08,24,4.80
2021,09,29,08,25,4.80
2021,09,29,08,26,3.20
2021,09,29,08,27,4.80
2021,09,29,08,28,4.80
2021,09,29,08,29,4.80
2021,09,29,08,30,4.80
2021,09,29,08,31,3.20
2021,09,29,08,32,3.20
2021,09,29,08,33,3.20
2021,09,29,08,34,3.20
2021,09,29,08,35,3.20
2021,09,29,08,36,3.20
2021,09,29,08,37,3.20
2021,09,29,08,38,3.20
2021,09,29,08,39,3.20
2021,09,29,08,40,3.20
2021,09,29,08,41,3.20
2021,09,29,08,42,3.20
2021,09,29,08,43,3.20
2021,09,29,08,44,3.20
2021,09,29,08,45,3.20
2021,09,29,08,46,4.80
2021,09,29,08,47,4.80
2021,09,29,08,48,4.80
2021,09,29,08,49,4.80
2021,09,29,08,50,4.80
2021,09,29,08,51,3.20
2021,09,29,08,52,3.20
2021,09,29,08,53,3.20
2021,09,29,08,54,3.20
2021,09,29,08,55,3.20
2021,09,29,08,56,4.80
2021,09,29,08,57,4.80
2021,09,29,08,58,4.80
2021,09,29,08,59,4.80
2021,09,29,09,00,4.80
2021,09,29,09,01,1.60
2021,09,29,09,02,1.60
2021,09,29,09,03,1.60
2021,09,29,09,04,1.60
2021,09,29,09,05,3.20
2021,09,29,09,06,1.60
2021,09,29,09,07,3.20
2021,09,29,09,08,4.80
2021,09,29,09,09,6.40
2021,09,29,09,10,6.40
2021,09,29,09,11,4.80
2021,09,29,09,12,6.40
2021,09,29,09,13,6.40
2021,09,29,09,14,6.40
2021,09,29,09,15,6.40
2021,09,29,09,16,3.20
2021,09,29,09,17,4.80
2021,09,29,09,18,4.80
2021,09,29,09,19,4.80
2021,09,29,09,20,4.80
2021,09,29,09,21,1.60
2021,09,29,09,22,3.20
2021,09,29,09,23,3.20
2021,09,29,09,24,3.20
2021,09,29,09,25,3.20
2021,09,29,09,26,1.60
2021,09,29,09,27,1.60
2021,09,29,09,28,3.20
2021,09,29,09,29,3.20
2021,09,29,09,30,4.80
2021,09,29,09,31,3.20
2021,09,29,09,32,3.20
2021,09,29,09,33,3.20
2021,09,29,09,34,3.20
2021,09,29,09,35,3.20
2021,09,29,09,36,1.60
2021,09,29,09,37,1.60
2021,09,29,09,38,3.20
2021,09,29,09,39,3.20
2021,09,29,09,40,3.20
2021,09,29,09,41,1.60
2021,09,29,09,42,1.60
2021,09,29,09,43,1.60
2021,09,29,09,44,3.20
2021,09,29,09,45,4.80
2021,09,29,09,46,4.80
2021,09,29,09,47,6.40
2021,09,29,09,48,6.40
2021,09,29,09,49,6.40
2021,09,29,09,50,6.40
2021,09,29,09,51,4.80
2021,09,29,09,52,6.40
2021,09,29,09,53,6.40
2021,09,29,09,54,6.40
2021,09,29,09,55,6.40
2021,09,29,09,56,3.20
2021,09,29,09,57,3.20
2021,09,29,09,58,3.20
2021,09,29,09,59,3.20
2021,09,29,10,00,3.20
2021,09,29,10,01,0.00
2021,09,29,10,02,3.20
2021,09,29,10,03,3.20
2021,09,29,10,04,3.20
2021,09,29,10,05,3.20
2021,09,29,10,06,3.20
2021,09,29,10,07,4.80
2021,09,29,10,08,4.80
2021,09,29,10,09,4.80
2021,09,29,10,10,4.80
2021,09,29,10,11,3.20
2021,09,29,10,12,3.20
2021,09,29,10,13,4.80
2021,09,29,10,14,4.80
2021,09,29,10,15,4.80
2021,09,29,10,16,4.80
2021,09,29,10,17,4.80
2021,09,29,10,18,4.80
2021,09,29,10,19,4.80
2021,09,29,10,20,4.80
2021,09,29,10,21,3.20
2021,09,29,10,22,3.20
2021,09,29,10,23,4.80
2021,09,29,10,24,4.80
2021,09,29,10,25,4.80
2021,09,29,10,26,4.80
2021,09,29,10,27,4.80
2021,09,29,10,28,4.80
2021,09,29,10,29,4.80
2021,09,29,10,30,4.80
2021,09,29,10,31,3.20
2021,09,29,10,32,8.00
2021,09,29,10,33,8.00
2021,09,29,10,34,8.00
2021,09,29,10,35,8.00
2021,09,29,10,36,4.80
2021,09,29,10,37,4.80
2021,09,29,10,38,4.80
2021,09,29,10,39,4.80
2021,09,29,10,40,4.80
2021,09,29,10,41,3.20
2021,09,29,10,42,3.20
2021,09,29,10,43,3.20
2021,09,29,10,44,4.80
2021,09,29,10,45,4.80
2021,09,29,10,46,4.80
2021,09,29,10,47,4.80
2021,09,29,10,48,4.80
2021,09,29,10,49,4.80
2021,09,29,10,50,6.40
2021,09,29,10,51,3.20
2021,09,29,10,52,3.20
2021,09,29,10,53,4.80
2021,09,29,10,54,6.40
2021,09,29,10,55,9.70
2021,09,29,10,56,8.00
2021,09,29,10,57,8.00
2021,09,29,10,58,8.00
2021,09,29,10,59,8.00
2021,09,29,11,00,8.00
2021,09,29,11,01,6.40
2021,09,29,11,02,6.40
2021,09,29,11,03,8.00
2021,09,29,11,04,8.00
2021,09,29,11,05,9.70
2021,09,29,11,06,6.40
2021,09,29,11,07,8.00
2021,09,29,11,08,8.00
2021,09,29,11,09,8.00
2021,09,29,11,10,9.70
2021,09,29,11,11,8.00
2021,09,29,11,12,9.70
2021,09,29,11,13,11.30
2021,09,29,11,14,11.30
2021,09,29,11,15,11.30
2021,09,29,11,16,8.00
2021,09,29,11,17,8.00
2021,09,29,11,18,8.00
2021,09,29,11,19,8.00
2021,09,29,11,20,8.00
2021,09,29,11,21,3.20
2021,09,29,11,22,3.20
2021,09,29,11,23,4.80
2021,09,29,11,24,6.40
2021,09,29,11,25,9.70
2021,09,29,11,26,9.70
2021,09,29,11,27,9.70
2021,09,29,11,28,9.70
2021,09,29,11,29,9.70
2021,09,29,11,30,9.70
2021,09,29,11,31,6.40
2021,09,29,11,32,6.40
2021,09,29,11,33,6.40
2021,09,29,11,34,6.40
2021,09,29,11,35,6.40
2021,09,29,11,36,6.40
2021,09,29,11,37,9.70
2021,09,29,11,38,9.70
2021,09,29,11,39,9.70
2021,09,29,11,40,11.30
2021,09,29,11,41,9.70
2021,09,29,11,42,9.70
2021,09,29,11,43,9.70
2021,09,29,11,44,9.70
2021,09,29,11,45,11.30
2021,09,29,11,46,11.30
2021,09,29,11,47,11.30
2021,09,29,11,48,11.30
2021,09,29,11,49,11.30
2021,09,29,11,50,11.30
2021,09,29,11,51,8.00
2021,09,29,11,52,12.90
2021,09,29,11,53,12.90
2021,09,29,11,54,12.90
2021,09,29,11,55,12.90
2021,09,29,11,56,11.30
2021,09,29,11,57,11.30
2021,09,29,11,58,11.30
2021,09,29,11,59,11.30
2021,09,29,12,00,11.30
2021,09,29,12,01,9.70
2021,09,29,12,02,9.70
2021,09,29,12,03,9.70
2021,09,29,12,04,9.70
2021,09,29,12,05,9.70
2021,09,29,12,06,4.80
2021,09,29,12,07,6.40
2021,09,29,12,08,6.40
2021,09,29,12,09,8.00
2021,09,29,12,10,8.00
2021,09,29,12,11,8.00
2021,09,29,12,12,8.00
2021,09,29,12,13,8.00
2021,09,29,12,14,8.00
2021,09,29,12,15,8.00
2021,09,29,12,16,6.40
2021,09,29,12,17,6.40
2021,09,29,12,18,8.00
2021,09,29,12,19,8.00
2021,09,29,12,20,8.00
2021,09,29,12,21,4.80
2021,09,29,12,22,4.80
2021,09,29,12,23,4.80
2021,09,29,12,24,4.80
2021,09,29,12,25,6.40
2021,09,29,12,26,3.20
2021,09,29,12,27,3.20
2021,09,29,12,28,4.80
2021,09,29,12,29,4.80
2021,09,29,12,30,4.80
2021,09,29,12,31,8.00
2021,09,29,12,32,8.00
2021,09,29,12,33,8.00
2021,09,29,12,34,8.00
2021,09,29,12,35,8.00
2021,09,29,12,36,6.40
2021,09,29,12,37,8.00
2021,09,29,12,38,8.00
2021,09,29,12,39,8.00
2021,09,29,12,40,8.00
2021,09,29,12,41,4.80
2021,09,29,12,42,4.80
2021,09,29,12,43,4.80
2021,09,29,12,44,4.80
2021,09,29,12,45,6.40
2021,09,29,12,46,8.00
2021,09,29,12,47,8.00
2021,09,29,12,48,8.00
2021,09,29,12,49,8.00
2021,09,29,12,50,8.00
2021,09,29,12,51,6.40
2021,09,29,12,52,6.40
2021,09,29,12,53,6.40
2021,09,29,12,54,6.40
2021,09,29,12,55,6.40
2021,09,29,12,56,3.20
2021,09,29,12,57,3.20
2021,09,29,12,58,3.20
2021,09,29,12,59,3.20
2021,09,29,13,00,3.20
2021,09,29,13,01,1.60
2021,09,29,13,02,3.20
2021,09,29,13,03,4.80
2021,09,29,13,04,6.40
2021,09,29,13,06,3.20
2021,09,29,13,07,3.20
2021,09,29,13,08,4.80
2021,09,29,13,09,4.80
2021,09,29,13,10,4.80
2021,09,29,13,12,4.80
2021,09,29,13,13,4.80
2021,09,29,13,14,4.80
2021,09,29,13,15,4.80
2021,09,29,13,16,4.80
2021,09,29,13,17,4.80
2021,09,29,13,18,4.80
2021,09,29,13,19,4.80
2021,09,29,13,20,4.80
2021,09,29,13,21,4.80
2021,09,29,13,22,4.80
2021,09,29,13,23,6.40
2021,09,29,13,24,8.00
2021,09,29,13,25,8.00
2021,09,29,13,26,8.00
2021,09,29,13,27,8.00
2021,09,29,13,28,11.30
2021,09,29,13,29,11.30
2021,09,29,13,30,11.30
2021,09,29,13,31,8.00
2021,09,29,13,32,8.00
2021,09,29,13,33,8.00
2021,09,29,13,34,8.00
2021,09,29,13,35,8.00
2021,09,29,13,36,8.00
2021,09,29,13,37,8.00
2021,09,29,13,38,8.00
2021,09,29,13,39,8.00
2021,09,29,13,40,8.00
2021,09,29,13,41,8.00
2021,09,29,13,42,9.70
2021,09,29,13,43,9.70
2021,09,29,13,44,9.70
2021,09,29,13,45,9.70
2021,09,29,13,46,8.00
2021,09,29,13,47,8.00
2021,09,29,13,48,8.00
2021,09,29,13,49,8.00
2021,09,29,13,50,9.70
2021,09,29,13,51,6.40
2021,09,29,13,52,11.30
2021,09,29,13,53,11.30
2021,09,29,13,54,11.30
2021,09,29,13,55,11.30
2021,09,29,13,56,9.70
2021,09,29,13,57,9.70
2021,09,29,13,58,11.30
2021,09,29,13,59,11.30
2021,09,29,14,00,11.30
2021,09,29,14,01,20.90
2021,09,29,14,02,22.50
2021,09,29,14,03,22.50
2021,09,29,14,04,22.50
2021,09,29,14,05,22.50
2021,09,29,14,06,12.90
2021,09,29,14,07,12.90
2021,09,29,14,08,12.90
2021,09,29,14,09,12.90
2021,09,29,14,10,12.90
2021,09,29,14,11,9.70
2021,09,29,14,12,9.70
2021,09,29,14,13,9.70
2021,09,29,14,14,9.70
2021,09,29,14,15,9.70
2021,09,29,14,16,4.80
2021,09,29,14,17,12.90
2021,09,29,14,18,12.90
2021,09,29,14,19,12.90
2021,09,29,14,20,12.90
2021,09,29,14,21,4.80
2021,09,29,14,22,4.80
2021,09,29,14,23,9.70
2021,09,29,14,24,16.10
2021,09,29,14,25,20.90
2021,09,29,14,26,20.90
2021,09,29,14,27,20.90
2021,09,29,14,28,20.90
2021,09,29,14,29,20.90
2021,09,29,14,30,20.90
2021,09,29,14,31,16.10
2021,09,29,14,32,17.70
2021,09,29,14,33,17.70
2021,09,29,14,34,17.70
2021,09,29,14,35,17.70
2021,09,29,14,36,29.00
2021,09,29,14,37,29.00
2021,09,29,14,38,29.00
2021,09,29,14,39,29.00
2021,09,29,14,40,29.00
2021,09,29,14,42,14.50
2021,09,29,14,43,20.90
2021,09,29,14,44,22.50
2021,09,29,14,45,22.50
2021,09,29,14,46,16.10
2021,09,29,14,47,20.90
2021,09,29,14,48,20.90
2021,09,29,14,49,20.90
2021,09,29,14,50,20.90
2021,09,29,14,51,14.50
2021,09,29,14,52,20.90
2021,09,29,14,53,20.90
2021,09,29,14,54,20.90
2021,09,29,14,55,25.70
2021,09,29,14,56,24.10
2021,09,29,14,57,24.10
2021,09,29,14,58,24.10
2021,09,29,14,59,24.10
2021,09,29,15,00,24.10
2021,09,29,15,01,25.70
2021,09,29,15,02,25.70
2021,09,29,15,03,25.70
2021,09,29,15,04,25.70
2021,09,29,15,05,25.70
2021,09,29,15,07,22.50
2021,09,29,15,08,22.50
2021,09,29,15,10,22.50
2021,09,29,15,12,20.90
2021,09,29,15,13,29.00
2021,09,29,15,14,35.40
2021,09,29,15,15,35.40
2021,09,29,15,16,29.00
2021,09,29,15,17,29.00
2021,09,29,15,18,35.40
2021,09,29,15,19,35.40
2021,09,29,15,20,35.40
2021,09,29,15,21,27.40
2021,09,29,15,22,27.40
2021,09,29,15,23,27.40
2021,09,29,15,24,27.40
2021,09,29,15,25,29.00
2021,09,29,15,27,22.50
2021,09,29,15,28,32.20
2021,09,29,15,29,32.20
2021,09,29,15,30,22.50
2021,09,29,15,32,22.50
2021,09,29,15,33,22.50
2021,09,29,15,34,24.10
2021,09,29,15,35,25.70
2021,09,29,15,36,27.40
2021,09,29,15,38,27.40
2021,09,29,15,39,27.40
2021,09,29,15,40,27.40
2021,09,29,15,41,22.50
2021,09,29,15,42,22.50
2021,09,29,15,43,22.50
2021,09,29,15,44,22.50
2021,09,29,15,45,22.50
2021,09,29,15,46,11.30
2021,09,29,15,47,11.30
2021,09,29,15,48,16.10
2021,09,29,15,49,19.30
2021,09,29,15,50,19.30
2021,09,29,15,51,17.70
2021,09,29,15,52,17.70
2021,09,29,15,53,19.30
2021,09,29,15,54,19.30
2021,09,29,15,55,25.70
2021,09,29,15,56,25.70
2021,09,29,15,57,25.70
2021,09,29,15,59,25.70
2021,09,29,16,00,25.70
2021,09,29,16,02,25.70
2021,09,29,16,03,25.70
2021,09,29,16,04,25.70
2021,09,29,16,05,25.70
2021,09,29,16,06,14.50
2021,09,29,16,07,25.70
2021,09,29,16,08,25.70
2021,09,29,16,09,25.70
2021,09,29,16,10,25.70
2021,09,29,16,11,25.70
2021,09,29,16,12,25.70
2021,09,29,16,13,25.70
2021,09,29,16,14,30.60
2021,09,29,16,15,30.60
2021,09,29,16,16,22.50
2021,09,29,16,17,24.10
2021,09,29,16,18,24.10
2021,09,29,16,20,24.10
2021,09,29,16,22,19.30
2021,09,29,16,23,19.30
2021,09,29,16,24,19.30
2021,09,29,16,25,19.30
2021,09,29,16,26,12.90
2021,09,29,16,27,14.50
2021,09,29,16,28,14.50
2021,09,29,16,29,14.50
2021,09,29,16,30,14.50
2021,09,29,16,31,12.90
2021,09,29,16,32,12.90
2021,09,29,16,33,12.90
2021,09,29,16,35,12.90
2021,09,29,16,36,8.00
2021,09,29,16,37,11.30
2021,09,29,16,38,12.90
2021,09,29,16,39,12.90
2021,09,29,16,40,12.90
2021,09,29,16,41,4.80
2021,09,29,16,42,12.90
2021,09,29,16,43,12.90
2021,09,29,16,44,12.90
2021,09,29,16,45,12.90
2021,09,29,16,46,14.50
2021,09,29,16,47,14.50
2021,09,29,16,48,14.50
2021,09,29,16,49,14.50
2021,09,29,16,50,14.50
2021,09,29,16,51,14.50
2021,09,29,16,52,14.50
2021,09,29,16,54,14.50
2021,09,29,16,56,12.90
2021,09,29,16,57,17.70
2021,09,29,16,58,17.70
2021,09,29,16,59,17.70
2021,09,29,17,00,17.70
2021,09,29,17,01,9.70
2021,09,29,17,02,9.70
2021,09,29,17,03,9.70
2021,09,29,17,04,12.90
2021,09,29,17,05,19.30
2021,09,29,17,06,22.50
2021,09,29,17,07,22.50
2021,09,29,17,08,22.50
2021,09,29,17,09,22.50
2021,09,29,17,10,22.50
2021,09,29,17,11,14.50
2021,09,29,17,12,16.10
2021,09,29,17,13,16.10
2021,09,29,17,15,16.10
2021,09,29,17,16,14.50
2021,09,29,17,17,14.50
2021,09,29,17,18,14.50
2021,09,29,17,19,14.50
2021,09,29,17,20,14.50
2021,09,29,17,21,14.50
2021,09,29,17,22,14.50
2021,09,29,17,23,14.50
2021,09,29,17,24,14.50
2021,09,29,17,25,14.50
2021,09,29,17,26,8.00
2021,09,29,17,27,11.30
2021,09,29,17,28,11.30
2021,09,29,17,29,12.90
2021,09,29,17,30,12.90
2021,09,29,17,31,16.10
2021,09,29,17,32,16.10
2021,09,29,17,34,16.10
2021,09,29,17,35,16.10
2021,09,29,17,36,8.00
2021,09,29,17,37,8.00
2021,09,29,17,38,8.00
2021,09,29,17,39,8.00
2021,09,29,17,40,11.30
2021,09,29,17,41,12.90
2021,09,29,17,42,12.90
2021,09,29,17,43,12.90
2021,09,29,17,44,12.90
2021,09,29,17,45,12.90
2021,09,29,17,46,4.80
2021,09,29,17,47,8.00
2021,09,29,17,48,8.00
2021,09,29,17,49,8.00
2021,09,29,17,50,8.00
2021,09,29,17,51,6.40
2021,09,29,17,52,6.40
2021,09,29,17,53,6.40
2021,09,29,17,54,6.40
2021,09,29,17,55,6.40
2021,09,29,17,56,3.20
2021,09,29,17,57,3.20
2021,09,29,17,58,3.20
2021,09,29,17,59,3.20
2021,09,29,18,00,3.20
2021,09,29,18,02,3.20
2021,09,29,18,03,3.20
2021,09,29,18,04,4.80
2021,09,29,18,05,4.80
2021,09,29,18,06,6.40
2021,09,29,18,07,6.40
2021,09,29,18,08,6.40
2021,09,29,18,09,6.40
2021,09,29,18,10,4.80
2021,09,29,18,11,4.80
2021,09,29,18,12,4.80
2021,09,29,18,13,4.80
2021,09,29,18,14,4.80
2021,09,29,18,16,3.20
2021,09,29,18,17,3.20
2021,09,29,18,18,3.20
2021,09,29,18,19,3.20
2021,09,29,18,20,3.20
2021,09,29,18,21,3.20
2021,09,29,18,22,3.20
2021,09,29,18,23,4.80
2021,09,29,18,24,4.80
2021,09,29,18,25,6.40
2021,09,29,18,26,6.40
2021,09,29,18,27,6.40
2021,09,29,18,28,6.40
2021,09,29,18,29,6.40
2021,09,29,18,31,6.40
2021,09,29,18,32,8.00
2021,09,29,18,33,8.00
2021,09,29,18,34,8.00
2021,09,29,18,35,8.00
2021,09,29,18,36,6.40
2021,09,29,18,38,6.40
2021,09,29,18,39,6.40
2021,09,29,18,40,6.40